Keps
Threads by month
- ----- 2024 -----
- September
- August
- July
- June
- May
- April
- March
- February
- January
- ----- 2023 -----
- December
- November
- October
- September
- August
- July
- June
- May
- April
- March
- February
- January
- ----- 2022 -----
- December
- November
- October
- September
- August
- July
- June
- May
- April
- March
- February
- January
- ----- 2021 -----
- December
- November
- October
- September
- August
- July
- June
- May
- April
- March
- February
- January
- ----- 2020 -----
- December
- November
- October
- September
- August
- July
- June
- May
- April
- March
- February
- January
- ----- 2019 -----
- December
- November
- October
- September
- August
- July
- June
- May
- April
- March
- February
- January
- ----- 2018 -----
- December
- November
- October
- September
- August
- July
- June
- May
- April
- March
- February
- January
- ----- 2017 -----
- December
- November
- October
- September
- August
- July
- June
- May
- April
- March
- February
- January
- ----- 2016 -----
- December
- November
- October
- September
- August
- July
- June
- May
- April
- March
- February
- January
- ----- 2015 -----
- December
- November
- October
- September
- August
- July
- June
- May
- April
- March
- February
- January
- ----- 2014 -----
- December
- November
- October
- September
- August
- July
- June
- May
- April
- March
- February
- January
- ----- 2013 -----
- December
- November
- October
- September
- August
- July
- June
- May
- April
- March
- February
- January
- ----- 2012 -----
- December
- November
- October
- September
- August
- July
- June
- May
- April
- March
- February
- January
- ----- 2011 -----
- December
- November
- October
- September
- August
- July
- June
- May
- April
- March
- February
- January
- ----- 2010 -----
- December
- November
- October
- September
- August
- July
- June
- May
- April
- March
- February
- January
- ----- 2009 -----
- December
- November
- October
- September
- August
- July
- June
- May
- April
- March
- February
- January
- ----- 2008 -----
- December
- November
- October
- September
- August
- July
- June
- May
- April
- March
- February
- January
- ----- 2007 -----
- December
- November
- October
- September
- August
- July
- June
- May
- April
- March
- February
- January
- ----- 2006 -----
- December
- November
- October
- September
May 2009
- 1 participants
- 12 discussions
SB KEPS @ AMSAT $ORB09120.N
2Line Orbital Elements 09120.AMSAT
HR AMSAT ORBITAL ELEMENTS FOR AMATEUR SATELLITES IN NASA FORMAT
FROM WA5QGD FORT WORTH,TX April 30, 2009
Send Subscribe/unsubscribe to KEPS at
http://www.amsat.org/mailman/listinfo/keps
BID: ORB09120.N
DECODE 2-LINE ELSETS WITH THE FOLLOWING KEY:
1 AAAAAU 00 0 0 BBBBB.BBBBBBBB .CCCCCCCC 00000-0 00000-0 0 DDDZ
2 AAAAA EEE.EEEE FFF.FFFF GGGGGGG HHH.HHHH III.IIII JJ.JJJJJJJJKKKKKZ
KEY: A-CATALOGNUM B-EPOCHTIME C-DECAY D-ELSETNUM E-INCLINATION F-RAAN
G-ECCENTRICITY H-ARGPERIGEE I-MNANOM J-MNMOTION K-ORBITNUM Z-CHECKSUM
TO ALL RADIO AMATEURS BT
AO-10
1 14129U 83058B 09118.18873775 -.00000266 00000-0 10000-3 0 06510
2 14129 025.9286 159.6671 5993688 217.9761 078.9282 02.05873042194592
AO-40
1 26609U 00072B 09118.36733132 -.00000322 00000-0 10000-3 0 2219
2 26609 009.2797 021.7278 7965204 198.8043 090.6082 01.25583743 39007
SO-33
1 25509U 98061B 09119.68633864 -.00000032 00000-0 -20645-4 0 04431
2 25509 031.4356 326.7489 0355156 274.3443 081.6686 14.28250666548895
AO-07
1 07530U 74089B 09119.72609173 -.00000027 00000-0 10000-3 0 04661
2 07530 101.4306 146.1766 0011693 005.4526 354.6673 12.53575632576646
RS-15
1 23439U 94085A 09119.73155766 -.00000039 00000-0 10000-3 0 02065
2 23439 064.8153 343.1762 0147404 060.9697 300.5904 11.27553439590659
FO-29
1 24278U 96046B 09119.78676955 -.00000033 00000-0 -37011-6 0 00358
2 24278 098.5611 000.3159 0351386 115.7494 248.0348 13.52942988627207
UO-11
1 14781U 84021B 09120.27077720 -.00000242 00000-0 -24997-4 0 9489
2 14781 098.1104 164.3046 0009952 127.9587 232.2531 14.79706314350743
RS-22
1 27939U 03042A 09120.67523735 .00000080 00000-0 24313-4 0 7789
2 27939 097.9511 357.2582 0012493 283.7454 076.2375 14.63311755298621
PO-63
1 29712U 07001D 09120.70807658 .00000438 00000-0 63860-4 0 4449
2 29712 097.8320 178.2421 0015508 070.1979 290.0895 14.80522612124448
VO-52
1 28650U 05017B 09120.77381374 -.00000067 00000-0 -19268-5 0 2142
2 28650 097.7445 183.9141 0027175 181.8482 178.2610 14.81576940215626
AO-16
1 20439U 90005D 09119.42688895 -.00000006 00000-0 13096-4 0 05943
2 20439 098.2762 090.0597 0010225 320.9390 039.1055 14.31822253006178
AO-27
1 22825U 93061C 09119.63142222 -.00000043 00000-0 -47156-6 0 2339
2 22825 098.4338 074.5941 0009180 051.7209 308.4808 14.29263718812979
CP3
1 31128U 07012M 09119.63940540 -.00000046 00000-0 00000-0 0 06185
2 31128 097.9890 174.9325 0104029 075.7232 285.5498 14.52037022107850
NO-44
1 26931U 01043C 09119.66039957 -.00000255 00000-0 -67374-4 0 01586
2 26931 067.0512 189.3618 0005307 272.5548 087.4945 14.29553382395644
LO-19
1 20442U 90005G 09119.91107455 -.00000063 00000-0 -82798-5 0 05130
2 20442 098.2379 097.9696 0011108 314.5802 045.4482 14.32058041006407
CP4
1 31132U 07012Q 09120.15222967 .00000158 00000-0 45009-4 0 5943
2 31132 097.9986 179.1896 0086768 063.3890 297.6162 14.55201137108040
AO-51
1 28375U 04025K 09120.45762449 .00000005 00000-0 14525-4 0 3764
2 28375 098.0545 132.8428 0083243 270.6699 088.4956 14.40639906254086
IO-26
1 22826U 93061D 09120.47009369 -.00000036 00000-0 22585-5 0 9570
2 22826 098.4262 076.1750 0009631 045.9708 314.2265 14.29515303813199
CO-55
1 27844U 03031E 09120.52192696 .00000032 00000-0 35369-4 0 5681
2 27844 098.7148 130.3614 0008962 283.0591 076.9575 14.20634239302496
SO-50
1 27607U 02058C 09120.54491094 .00000048 00000-0 29545-4 0 8737
2 27607 064.5582 169.7871 0072854 215.9590 143.6602 14.71432156341666
CO-57
1 27848U 03031J 09120.56326383 .00000018 00000-0 28843-4 0 5145
2 27848 098.7159 129.4632 0009071 289.1420 070.8788 14.20436743302467
CO-56
1 28941U 06005C 09120.58258952 .00034106 30466-5 13883-3 0 378
2 28941 098.1390 286.3015 0096919 311.1722 048.1166 15.79440784179723
GO-32
1 25397U 98043D 09120.61580063 -.00000086 00000-0 -19852-4 0 8816
2 25397 098.3284 145.4981 0001979 061.6806 298.4579 14.23157423561364
CO-65
1 32785U 08021C 09120.71119538 .00000109 00000-0 20721-4 0 3522
2 32785 097.9459 185.0603 0014589 181.4169 178.6997 14.81474338 54414
SOHLA-1
1 33496U 09002E 09120.72066172 .00000022 00000-0 11999-4 0 3002
2 33496 098.0337 230.7797 0007960 076.4043 283.8051 14.69431009 14300
NOAA-11
1 19531U 88089A 09119.34247031 -.00000155 00000-0 -57408-4 0 06039
2 19531 098.7819 210.0500 0010756 247.1569 112.8467 14.14893533062619
NOAA-15
1 25338U 98030A 09119.66648152 -.00000133 00000-0 -38546-4 0 09077
2 25338 098.5835 109.9448 0010379 193.4016 166.6896 14.24754767569863
NOAA-16
1 26536U 00055A 09119.69987055 .00000235 00000-0 15214-3 0 03834
2 26536 099.1769 122.1958 0011324 060.5112 299.7179 14.12517125443452
NOAA-10
1 16969U 86073A 09119.71951223 .00000003 00000-0 19355-4 0 05935
2 16969 098.6943 146.6233 0012223 343.0246 017.0514 14.27385079176591
NOAA-17
1 27453U 02032A 09119.73086370 -.00000094 00000-0 -22360-4 0 03921
2 27453 098.4873 180.4605 0010697 263.5547 096.4404 14.24058174355850
NOAA-14
1 23455U 94089A 09119.76220511 .00000277 00000-0 16981-3 0 05982
2 23455 098.9105 197.6076 0008756 332.9268 027.1448 14.13763141739082
NOAA-18
1 28654U 05018A 09119.76551991 .00000098 00000-0 78500-4 0 08813
2 28654 098.9053 063.3873 0015008 136.8546 223.3825 14.11251864203124
OKEAN-4
1 23317U 94066A 09119.77949819 .00000287 00000-0 32468-4 0 08954
2 23317 082.5425 019.6619 0022382 159.7890 200.4209 14.82692296785198
MET-2/21
1 22782U 93055A 09119.80113197 .00000042 00000-0 24228-4 0 04479
2 22782 082.5499 220.3817 0023850 120.7027 239.6492 13.83636731790912
NOAA-19
1 33591U 09005A 09119.80603407 -.00000102 00000-0 -32804-4 0 00866
2 33591 098.7444 066.8344 0014703 024.5297 335.6566 14.10952713011610
MET-3/5
1 21655U 91056A 09119.90883332 .00000051 00000-0 10000-3 0 06847
2 21655 082.5482 240.5918 0012817 306.2527 053.7412 13.17018785851279
NOAA-12
1 21263U 91032A 09119.95931099 .00000014 00000-0 24933-4 0 01200
2 21263 098.7718 127.9982 0011460 288.3287 071.6646 14.25576043933523
RESURS
1 25394U 98043A 09120.66720404 -.00000034 00000-0 31399-5 0 2012
2 25394 098.3472 155.4280 0002043 020.9244 339.2019 14.24181835561638
OKEAN-0
1 25860U 99039A 09120.77490461 .00000011 00000-0 88868-5 0 6645
2 25860 097.7831 103.8490 0001248 042.9901 317.1403 14.73569752526161
FENGYUN1
1 25730U 99025A 09120.81082191 -.00000047 00000-0 -22256-5 0 7447
2 25730 098.7538 092.3970 0022499 357.0866 003.0169 14.07964973513659
CO-66
1 32791U 08021J 09119.37836480 .00000147 00000-0 25570-4 0 03362
2 32791 097.9483 183.6386 0015627 185.3470 174.7572 14.81420088054185
PO-34
1 25520U 98064B 09119.45209724 .00000299 00000-0 49644-5 0 02405
2 25520 028.4601 221.2057 0005431 137.1903 222.9121 15.17327788581241
CO-58
1 28895U 05043F 09119.67136668 .00000217 00000-0 54891-4 0 02902
2 28895 098.0675 011.6338 0018589 136.7369 223.5305 14.59762864186655
CAPE1
1 31130U 07012P 09119.83752121 -.00000008 00000-0 87724-5 0 05894
2 31130 097.9959 175.1395 0104031 075.5365 285.7329 14.52051946107673
AAUSAT2
1 32788U 08021F 09119.85325114 -.00000079 00000-0 -31738-5 0 03469
2 32788 097.9471 184.1296 0015489 185.5815 174.5195 14.81707166054291
RS-30
1 32953U 08025A 09120.45935586 .00000010 00000-0 00000 0 0 2920
2 32953 082.4974 286.2953 0018167 283.7282 076.1778 12.43000691 42466
MAST
1 31126U 07012K 09120.74141999 .00000093 00000-0 31390-4 0 5830
2 31126 097.9915 177.7087 0095831 067.4105 293.7222 14.53492529108146
DO-64
1 32789U 08021G 09120.75212448 .00000625 00000-0 86105-4 0 3547
2 32789 097.9504 185.1532 0015568 181.4756 178.6413 14.81679958 54420
COMPASS
1 32787U 08021E 09120.75935354 .00000332 00000-0 49038-4 0 3441
2 32787 097.9441 184.9754 0015642 182.2957 177.8184 14.81587813 54420
FALCON
1 30776U 07006E 09120.81002071 .00000313 00000-0 25736-4 0 5571
2 30776 035.4341 026.8494 0001737 262.9556 097.0963 15.03226017117966
HUBBLE
1 20580U 90037B 09120.82820089 .00000300 00000-0 10300-4 0 3774
2 20580 028.4685 051.3398 0003901 159.8542 200.2206 15.00478951842732
ISS
1 25544U 98067A 09120.90148148 .00009021 00000-0 70424-4 0 7729
2 25544 051.6396 189.3708 0009000 309.9180 027.5376 15.72517156598504
/EX
1
0
SB KEPS @ AMSAT $ORB09120.O
Orbital Elements 09120.OSCAR
HR AMSAT ORBITAL ELEMENTS FOR OSCAR SATELLITES
FROM WA5QGD FORT WORTH,TX April 30, 2009
Send Subscribe/unsubscribe to KEPS at
http://www.amsat.org/mailman/listinfo/keps
BID: ORB09120.O
TO ALL RADIO AMATEURS BT
Satellite: AO-10
Catalog number: 14129
Epoch time: 09118.18873775
Element set: 0651
Inclination: 025.9286 deg
RA of node: 159.6671 deg
Eccentricity: 0.5993688
Arg of perigee: 217.9761 deg
Mean anomaly: 078.9282 deg
Mean motion: 02.05873042 rev/day
Decay rate: -2.66e-06 rev/day^2
Epoch rev: 19459
Checksum: 363
Satellite: AO-40
Catalog number: 26609
Epoch time: 09118.36733132
Element set: 221
Inclination: 009.2797 deg
RA of node: 021.7278 deg
Eccentricity: 0.7965204
Arg of perigee: 198.8043 deg
Mean anomaly: 090.6082 deg
Mean motion: 01.25583743 rev/day
Decay rate: -3.22e-06 rev/day^2
Epoch rev: 3900
Checksum: 299
Satellite: SO-33
Catalog number: 25509
Epoch time: 09119.68633864
Element set: 0443
Inclination: 031.4356 deg
RA of node: 326.7489 deg
Eccentricity: 0.0355156
Arg of perigee: 274.3443 deg
Mean anomaly: 081.6686 deg
Mean motion: 14.28250666 rev/day
Decay rate: -3.2e-07 rev/day^2
Epoch rev: 54889
Checksum: 341
Satellite: AO-07
Catalog number: 07530
Epoch time: 09119.72609173
Element set: 0466
Inclination: 101.4306 deg
RA of node: 146.1766 deg
Eccentricity: 0.0011693
Arg of perigee: 005.4526 deg
Mean anomaly: 354.6673 deg
Mean motion: 12.53575632 rev/day
Decay rate: -2.7e-07 rev/day^2
Epoch rev: 57664
Checksum: 303
Satellite: RS-15
Catalog number: 23439
Epoch time: 09119.73155766
Element set: 0206
Inclination: 064.8153 deg
RA of node: 343.1762 deg
Eccentricity: 0.0147404
Arg of perigee: 060.9697 deg
Mean anomaly: 300.5904 deg
Mean motion: 11.27553439 rev/day
Decay rate: -3.9e-07 rev/day^2
Epoch rev: 59065
Checksum: 315
Satellite: FO-29
Catalog number: 24278
Epoch time: 09119.78676955
Element set: 0035
Inclination: 098.5611 deg
RA of node: 000.3159 deg
Eccentricity: 0.0351386
Arg of perigee: 115.7494 deg
Mean anomaly: 248.0348 deg
Mean motion: 13.52942988 rev/day
Decay rate: -3.3e-07 rev/day^2
Epoch rev: 62720
Checksum: 335
Satellite: UO-11
Catalog number: 14781
Epoch time: 09120.27077720
Element set: 948
Inclination: 098.1104 deg
RA of node: 164.3046 deg
Eccentricity: 0.0009952
Arg of perigee: 127.9587 deg
Mean anomaly: 232.2531 deg
Mean motion: 14.79706314 rev/day
Decay rate: -2.42e-06 rev/day^2
Epoch rev: 35074
Checksum: 297
Satellite: RS-22
Catalog number: 27939
Epoch time: 09120.67523735
Element set: 778
Inclination: 097.9511 deg
RA of node: 357.2582 deg
Eccentricity: 0.0012493
Arg of perigee: 283.7454 deg
Mean anomaly: 076.2375 deg
Mean motion: 14.63311755 rev/day
Decay rate: 8.0e-07 rev/day^2
Epoch rev: 29862
Checksum: 334
Satellite: PO-63
Catalog number: 29712
Epoch time: 09120.70807658
Element set: 444
Inclination: 097.8320 deg
RA of node: 178.2421 deg
Eccentricity: 0.0015508
Arg of perigee: 070.1979 deg
Mean anomaly: 290.0895 deg
Mean motion: 14.80522612 rev/day
Decay rate: 4.38e-06 rev/day^2
Epoch rev: 12444
Checksum: 305
Satellite: VO-52
Catalog number: 28650
Epoch time: 09120.77381374
Element set: 214
Inclination: 097.7445 deg
RA of node: 183.9141 deg
Eccentricity: 0.0027175
Arg of perigee: 181.8482 deg
Mean anomaly: 178.2610 deg
Mean motion: 14.81576940 rev/day
Decay rate: -6.7e-07 rev/day^2
Epoch rev: 21562
Checksum: 315
/EX
SB KEPS @ AMSAT $ORB09120.D
Orbital Elements 09120.MICROS
HR AMSAT ORBITAL ELEMENTS FOR THE MICROSATS
FROM WA5QGD FORT WORTH,TX April 30, 2009
Send Subscribe/unsubscribe to KEPS at
http://www.amsat.org/mailman/listinfo/keps
BID: ORB09120.D
TO ALL RADIO AMATEURS BT
Satellite: AO-16
Catalog number: 20439
Epoch time: 09119.42688895
Element set: 0594
Inclination: 098.2762 deg
RA of node: 090.0597 deg
Eccentricity: 0.0010225
Arg of perigee: 320.9390 deg
Mean anomaly: 039.1055 deg
Mean motion: 14.31822253 rev/day
Decay rate: -6.0e-08 rev/day^2
Epoch rev: 00617
Checksum: 300
Satellite: AO-27
Catalog number: 22825
Epoch time: 09119.63142222
Element set: 233
Inclination: 098.4338 deg
RA of node: 074.5941 deg
Eccentricity: 0.0009180
Arg of perigee: 051.7209 deg
Mean anomaly: 308.4808 deg
Mean motion: 14.29263718 rev/day
Decay rate: -4.3e-07 rev/day^2
Epoch rev: 81297
Checksum: 305
Satellite: CP3
Catalog number: 31128
Epoch time: 09119.63940540
Element set: 0618
Inclination: 097.9890 deg
RA of node: 174.9325 deg
Eccentricity: 0.0104029
Arg of perigee: 075.7232 deg
Mean anomaly: 285.5498 deg
Mean motion: 14.52037022 rev/day
Decay rate: -4.6e-07 rev/day^2
Epoch rev: 10785
Checksum: 308
Satellite: NO-44
Catalog number: 26931
Epoch time: 09119.66039957
Element set: 0158
Inclination: 067.0512 deg
RA of node: 189.3618 deg
Eccentricity: 0.0005307
Arg of perigee: 272.5548 deg
Mean anomaly: 087.4945 deg
Mean motion: 14.29553382 rev/day
Decay rate: -2.55e-06 rev/day^2
Epoch rev: 39564
Checksum: 342
Satellite: LO-19
Catalog number: 20442
Epoch time: 09119.91107455
Element set: 0513
Inclination: 098.2379 deg
RA of node: 097.9696 deg
Eccentricity: 0.0011108
Arg of perigee: 314.5802 deg
Mean anomaly: 045.4482 deg
Mean motion: 14.32058041 rev/day
Decay rate: -6.3e-07 rev/day^2
Epoch rev: 00640
Checksum: 287
Satellite: CP4
Catalog number: 31132
Epoch time: 09120.15222967
Element set: 594
Inclination: 097.9986 deg
RA of node: 179.1896 deg
Eccentricity: 0.0086768
Arg of perigee: 063.3890 deg
Mean anomaly: 297.6162 deg
Mean motion: 14.55201137 rev/day
Decay rate: 1.58e-06 rev/day^2
Epoch rev: 10804
Checksum: 329
Satellite: AO-51
Catalog number: 28375
Epoch time: 09120.45762449
Element set: 376
Inclination: 098.0545 deg
RA of node: 132.8428 deg
Eccentricity: 0.0083243
Arg of perigee: 270.6699 deg
Mean anomaly: 088.4956 deg
Mean motion: 14.40639906 rev/day
Decay rate: 5.0e-08 rev/day^2
Epoch rev: 25408
Checksum: 336
Satellite: IO-26
Catalog number: 22826
Epoch time: 09120.47009369
Element set: 957
Inclination: 098.4262 deg
RA of node: 076.1750 deg
Eccentricity: 0.0009631
Arg of perigee: 045.9708 deg
Mean anomaly: 314.2265 deg
Mean motion: 14.29515303 rev/day
Decay rate: -3.6e-07 rev/day^2
Epoch rev: 81319
Checksum: 307
Satellite: CO-55
Catalog number: 27844
Epoch time: 09120.52192696
Element set: 568
Inclination: 098.7148 deg
RA of node: 130.3614 deg
Eccentricity: 0.0008962
Arg of perigee: 283.0591 deg
Mean anomaly: 076.9575 deg
Mean motion: 14.20634239 rev/day
Decay rate: 3.2e-07 rev/day^2
Epoch rev: 30249
Checksum: 321
Satellite: SO-50
Catalog number: 27607
Epoch time: 09120.54491094
Element set: 873
Inclination: 064.5582 deg
RA of node: 169.7871 deg
Eccentricity: 0.0072854
Arg of perigee: 215.9590 deg
Mean anomaly: 143.6602 deg
Mean motion: 14.71432156 rev/day
Decay rate: 4.8e-07 rev/day^2
Epoch rev: 34166
Checksum: 318
Satellite: CO-57
Catalog number: 27848
Epoch time: 09120.56326383
Element set: 514
Inclination: 098.7159 deg
RA of node: 129.4632 deg
Eccentricity: 0.0009071
Arg of perigee: 289.1420 deg
Mean anomaly: 070.8788 deg
Mean motion: 14.20436743 rev/day
Decay rate: 1.8e-07 rev/day^2
Epoch rev: 30246
Checksum: 315
Satellite: CO-56
Catalog number: 28941
Epoch time: 09120.58258952
Element set: 37
Inclination: 098.1390 deg
RA of node: 286.3015 deg
Eccentricity: 0.0096919
Arg of perigee: 311.1722 deg
Mean anomaly: 048.1166 deg
Mean motion: 15.79440784 rev/day
Decay rate: 3.4106e-04 rev/day^2
Epoch rev: 17972
Checksum: 330
Satellite: GO-32
Catalog number: 25397
Epoch time: 09120.61580063
Element set: 881
Inclination: 098.3284 deg
RA of node: 145.4981 deg
Eccentricity: 0.0001979
Arg of perigee: 061.6806 deg
Mean anomaly: 298.4579 deg
Mean motion: 14.23157423 rev/day
Decay rate: -8.6e-07 rev/day^2
Epoch rev: 56136
Checksum: 331
Satellite: CO-65
Catalog number: 32785
Epoch time: 09120.71119538
Element set: 352
Inclination: 097.9459 deg
RA of node: 185.0603 deg
Eccentricity: 0.0014589
Arg of perigee: 181.4169 deg
Mean anomaly: 178.6997 deg
Mean motion: 14.81474338 rev/day
Decay rate: 1.09e-06 rev/day^2
Epoch rev: 5441
Checksum: 340
Satellite: SOHLA-1
Catalog number: 33496
Epoch time: 09120.72066172
Element set: 300
Inclination: 098.0337 deg
RA of node: 230.7797 deg
Eccentricity: 0.0007960
Arg of perigee: 076.4043 deg
Mean anomaly: 283.8051 deg
Mean motion: 14.69431009 rev/day
Decay rate: 2.2e-07 rev/day^2
Epoch rev: 1430
Checksum: 270
/EX
SB KEPS @ AMSAT $ORB09120.W
Orbital Elements 09120.WEATHER
HR AMSAT ORBITAL ELEMENTS FOR WEATHER SATELLITES
FROM WA5QGD FORT WORTH,TX April 30, 2009
Send Subscribe/unsubscribe to KEPS at
http://www.amsat.org/mailman/listinfo/keps
BID: ORB09120.W
TO ALL RADIO AMATEURS BT
Satellite: NOAA-11
Catalog number: 19531
Epoch time: 09119.34247031
Element set: 0603
Inclination: 098.7819 deg
RA of node: 210.0500 deg
Eccentricity: 0.0010756
Arg of perigee: 247.1569 deg
Mean anomaly: 112.8467 deg
Mean motion: 14.14893533 rev/day
Decay rate: -1.55e-06 rev/day^2
Epoch rev: 06261
Checksum: 284
Satellite: NOAA-15
Catalog number: 25338
Epoch time: 09119.66648152
Element set: 0907
Inclination: 098.5835 deg
RA of node: 109.9448 deg
Eccentricity: 0.0010379
Arg of perigee: 193.4016 deg
Mean anomaly: 166.6896 deg
Mean motion: 14.24754767 rev/day
Decay rate: -1.33e-06 rev/day^2
Epoch rev: 56986
Checksum: 359
Satellite: NOAA-16
Catalog number: 26536
Epoch time: 09119.69987055
Element set: 0383
Inclination: 099.1769 deg
RA of node: 122.1958 deg
Eccentricity: 0.0011324
Arg of perigee: 060.5112 deg
Mean anomaly: 299.7179 deg
Mean motion: 14.12517125 rev/day
Decay rate: 2.35e-06 rev/day^2
Epoch rev: 44345
Checksum: 320
Satellite: NOAA-10
Catalog number: 16969
Epoch time: 09119.71951223
Element set: 0593
Inclination: 098.6943 deg
RA of node: 146.6233 deg
Eccentricity: 0.0012223
Arg of perigee: 343.0246 deg
Mean anomaly: 017.0514 deg
Mean motion: 14.27385079 rev/day
Decay rate: 3.0e-08 rev/day^2
Epoch rev: 17659
Checksum: 302
Satellite: NOAA-17
Catalog number: 27453
Epoch time: 09119.73086370
Element set: 0392
Inclination: 098.4873 deg
RA of node: 180.4605 deg
Eccentricity: 0.0010697
Arg of perigee: 263.5547 deg
Mean anomaly: 096.4404 deg
Mean motion: 14.24058174 rev/day
Decay rate: -9.4e-07 rev/day^2
Epoch rev: 35585
Checksum: 329
Satellite: NOAA-14
Catalog number: 23455
Epoch time: 09119.76220511
Element set: 0598
Inclination: 098.9105 deg
RA of node: 197.6076 deg
Eccentricity: 0.0008756
Arg of perigee: 332.9268 deg
Mean anomaly: 027.1448 deg
Mean motion: 14.13763141 rev/day
Decay rate: 2.77e-06 rev/day^2
Epoch rev: 73908
Checksum: 327
Satellite: NOAA-18
Catalog number: 28654
Epoch time: 09119.76551991
Element set: 0881
Inclination: 098.9053 deg
RA of node: 063.3873 deg
Eccentricity: 0.0015008
Arg of perigee: 136.8546 deg
Mean anomaly: 223.3825 deg
Mean motion: 14.11251864 rev/day
Decay rate: 9.8e-07 rev/day^2
Epoch rev: 20312
Checksum: 319
Satellite: OKEAN-4
Catalog number: 23317
Epoch time: 09119.77949819
Element set: 0895
Inclination: 082.5425 deg
RA of node: 019.6619 deg
Eccentricity: 0.0022382
Arg of perigee: 159.7890 deg
Mean anomaly: 200.4209 deg
Mean motion: 14.82692296 rev/day
Decay rate: 2.87e-06 rev/day^2
Epoch rev: 78519
Checksum: 353
Satellite: MET-2/21
Catalog number: 22782
Epoch time: 09119.80113197
Element set: 0447
Inclination: 082.5499 deg
RA of node: 220.3817 deg
Eccentricity: 0.0023850
Arg of perigee: 120.7027 deg
Mean anomaly: 239.6492 deg
Mean motion: 13.83636731 rev/day
Decay rate: 4.2e-07 rev/day^2
Epoch rev: 79091
Checksum: 307
Satellite: NOAA-19
Catalog number: 33591
Epoch time: 09119.80603407
Element set: 0086
Inclination: 098.7444 deg
RA of node: 066.8344 deg
Eccentricity: 0.0014703
Arg of perigee: 024.5297 deg
Mean anomaly: 335.6566 deg
Mean motion: 14.10952713 rev/day
Decay rate: -1.02e-06 rev/day^2
Epoch rev: 01161
Checksum: 294
Satellite: MET-3/5
Catalog number: 21655
Epoch time: 09119.90883332
Element set: 0684
Inclination: 082.5482 deg
RA of node: 240.5918 deg
Eccentricity: 0.0012817
Arg of perigee: 306.2527 deg
Mean anomaly: 053.7412 deg
Mean motion: 13.17018785 rev/day
Decay rate: 5.1e-07 rev/day^2
Epoch rev: 85127
Checksum: 306
Satellite: NOAA-12
Catalog number: 21263
Epoch time: 09119.95931099
Element set: 0120
Inclination: 098.7718 deg
RA of node: 127.9982 deg
Eccentricity: 0.0011460
Arg of perigee: 288.3287 deg
Mean anomaly: 071.6646 deg
Mean motion: 14.25576043 rev/day
Decay rate: 1.4e-07 rev/day^2
Epoch rev: 93352
Checksum: 318
Satellite: RESURS
Catalog number: 25394
Epoch time: 09120.66720404
Element set: 201
Inclination: 098.3472 deg
RA of node: 155.4280 deg
Eccentricity: 0.0002043
Arg of perigee: 020.9244 deg
Mean anomaly: 339.2019 deg
Mean motion: 14.24181835 rev/day
Decay rate: -3.4e-07 rev/day^2
Epoch rev: 56163
Checksum: 258
Satellite: OKEAN-0
Catalog number: 25860
Epoch time: 09120.77490461
Element set: 664
Inclination: 097.7831 deg
RA of node: 103.8490 deg
Eccentricity: 0.0001248
Arg of perigee: 042.9901 deg
Mean anomaly: 317.1403 deg
Mean motion: 14.73569752 rev/day
Decay rate: 1.1e-07 rev/day^2
Epoch rev: 52616
Checksum: 288
Satellite: FENGYUN1
Catalog number: 25730
Epoch time: 09120.81082191
Element set: 744
Inclination: 098.7538 deg
RA of node: 092.3970 deg
Eccentricity: 0.0022499
Arg of perigee: 357.0866 deg
Mean anomaly: 003.0169 deg
Mean motion: 14.07964973 rev/day
Decay rate: -4.7e-07 rev/day^2
Epoch rev: 51365
Checksum: 317
/EX
SB KEPS @ AMSAT $ORB09120.M
Orbital Elements 09120.MISC
HR AMSAT ORBITAL ELEMENTS FOR MANNED AND MISCELLANEOUS SATELLITES
FROM WA5QGD FORT WORTH,TX April 30, 2009
Send Subscribe/unsubscribe to KEPS at
http://www.amsat.org/mailman/listinfo/keps
BID: ORB09120.M
TO ALL RADIO AMATEURS BT
Satellite: CO-66
Catalog number: 32791
Epoch time: 09119.37836480
Element set: 0336
Inclination: 097.9483 deg
RA of node: 183.6386 deg
Eccentricity: 0.0015627
Arg of perigee: 185.3470 deg
Mean anomaly: 174.7572 deg
Mean motion: 14.81420088 rev/day
Decay rate: 1.47e-06 rev/day^2
Epoch rev: 05418
Checksum: 338
Satellite: PO-34
Catalog number: 25520
Epoch time: 09119.45209724
Element set: 0240
Inclination: 028.4601 deg
RA of node: 221.2057 deg
Eccentricity: 0.0005431
Arg of perigee: 137.1903 deg
Mean anomaly: 222.9121 deg
Mean motion: 15.17327788 rev/day
Decay rate: 2.99e-06 rev/day^2
Epoch rev: 58124
Checksum: 275
Satellite: CO-58
Catalog number: 28895
Epoch time: 09119.67136668
Element set: 0290
Inclination: 098.0675 deg
RA of node: 011.6338 deg
Eccentricity: 0.0018589
Arg of perigee: 136.7369 deg
Mean anomaly: 223.5305 deg
Mean motion: 14.59762864 rev/day
Decay rate: 2.17e-06 rev/day^2
Epoch rev: 18665
Checksum: 360
Satellite: CAPE1
Catalog number: 31130
Epoch time: 09119.83752121
Element set: 0589
Inclination: 097.9959 deg
RA of node: 175.1395 deg
Eccentricity: 0.0104031
Arg of perigee: 075.5365 deg
Mean anomaly: 285.7329 deg
Mean motion: 14.52051946 rev/day
Decay rate: -8.0e-08 rev/day^2
Epoch rev: 10767
Checksum: 313
Satellite: AAUSAT2
Catalog number: 32788
Epoch time: 09119.85325114
Element set: 0346
Inclination: 097.9471 deg
RA of node: 184.1296 deg
Eccentricity: 0.0015489
Arg of perigee: 185.5815 deg
Mean anomaly: 174.5195 deg
Mean motion: 14.81707166 rev/day
Decay rate: -7.9e-07 rev/day^2
Epoch rev: 05429
Checksum: 340
Satellite: RS-30
Catalog number: 32953
Epoch time: 09120.45935586
Element set: 292
Inclination: 082.4974 deg
RA of node: 286.2953 deg
Eccentricity: 0.0018167
Arg of perigee: 283.7282 deg
Mean anomaly: 076.1778 deg
Mean motion: 12.43000691 rev/day
Decay rate: 1.0e-07 rev/day^2
Epoch rev: 4246
Checksum: 309
Satellite: MAST
Catalog number: 31126
Epoch time: 09120.74141999
Element set: 583
Inclination: 097.9915 deg
RA of node: 177.7087 deg
Eccentricity: 0.0095831
Arg of perigee: 067.4105 deg
Mean anomaly: 293.7222 deg
Mean motion: 14.53492529 rev/day
Decay rate: 9.3e-07 rev/day^2
Epoch rev: 10814
Checksum: 318
Satellite: DO-64
Catalog number: 32789
Epoch time: 09120.75212448
Element set: 354
Inclination: 097.9504 deg
RA of node: 185.1532 deg
Eccentricity: 0.0015568
Arg of perigee: 181.4756 deg
Mean anomaly: 178.6413 deg
Mean motion: 14.81679958 rev/day
Decay rate: 6.25e-06 rev/day^2
Epoch rev: 5442
Checksum: 338
Satellite: COMPASS
Catalog number: 32787
Epoch time: 09120.75935354
Element set: 344
Inclination: 097.9441 deg
RA of node: 184.9754 deg
Eccentricity: 0.0015642
Arg of perigee: 182.2957 deg
Mean anomaly: 177.8184 deg
Mean motion: 14.81587813 rev/day
Decay rate: 3.32e-06 rev/day^2
Epoch rev: 5442
Checksum: 329
Satellite: FALCON
Catalog number: 30776
Epoch time: 09120.81002071
Element set: 557
Inclination: 035.4341 deg
RA of node: 026.8494 deg
Eccentricity: 0.0001737
Arg of perigee: 262.9556 deg
Mean anomaly: 097.0963 deg
Mean motion: 15.03226017 rev/day
Decay rate: 3.13e-06 rev/day^2
Epoch rev: 11796
Checksum: 278
Satellite: HUBBLE
Catalog number: 20580
Epoch time: 09120.82820089
Element set: 377
Inclination: 028.4685 deg
RA of node: 051.3398 deg
Eccentricity: 0.0003901
Arg of perigee: 159.8542 deg
Mean anomaly: 200.2206 deg
Mean motion: 15.00478951 rev/day
Decay rate: 3.00e-06 rev/day^2
Epoch rev: 84273
Checksum: 278
Satellite: ISS
Catalog number: 25544
Epoch time: 09120.90148148
Element set: 772
Inclination: 051.6396 deg
RA of node: 189.3708 deg
Eccentricity: 0.0009000
Arg of perigee: 309.9180 deg
Mean anomaly: 027.5376 deg
Mean motion: 15.72517156 rev/day
Decay rate: 9.021e-05 rev/day^2
Epoch rev: 59850
Checksum: 305
/EX
1
0